Regional Weather Roundup
Issued by NWS Charleston, WV

Home | Current Version | Previous Version | Text Only | Print | Product List | Glossary On
Versions: 1 2 3 4 5 6 7 8 9 10 11 12 13 14 15 16 17 18 19 20 21 22 23 24 25 26 27 28 29 30 31 32 33 34 35 36 37 38 39 40 41 42 43 44 45 46 47 48 49 50
000
ASUS41 KRLX 232010
RWRRLX
Regional Weather Roundup
National Weather Service Charleston WV
400 PM EDT TUE OCT 23 2018

Note: "fair" indicates few or no clouds below 12,000 feet with no
significant weather and/or obstructions to visibility.

WVZ003-232100-
Northern Panhandle of West Virginia

CITY           SKY/WX    TMP DP  RH WIND       PRES   REMARKS
WHEELING       FAIR      56  35  45 W16G23    30.10R
$$

WVZ009-232100-
Northwest West Virginia

CITY           SKY/WX    TMP DP  RH WIND       PRES   REMARKS
PARKERSBURG    FAIR      63  30  28 W10G20    30.15S
$$

WVZ006-232100-
Western West Virginia

CITY           SKY/WX    TMP DP  RH WIND       PRES   REMARKS
HUNTINGTON     FAIR      66  34  30 NW10G20   30.13S
$$

WVZ015-232100-
West Central West Virginia

CITY           SKY/WX    TMP DP  RH WIND       PRES   REMARKS
CHARLESTON     FAIR      65  35  33 W9G22     30.11F
$$

WVZ022-031-232100-
North Central West Virginia

CITY           SKY/WX    TMP DP  RH WIND       PRES   REMARKS
MORGANTOWN     FAIR      60  32  34 W12G18    30.09R
CLARKSBURG     FAIR      62  34  35 W9        30.09R
BUCKHANNON     FAIR      64  37  36 W13G20    30.09R
$$

WVZ025-035-042-045-232100-
Southern West Virginia

CITY           SKY/WX    TMP DP  RH WIND       PRES   REMARKS
BECKLEY        FAIR      59  28  30 W20G26    30.13F
LOGAN          FAIR      63  37  39 MISG      30.13F
PINEVILLE      FAIR      64  35  34 MISG      30.18F
BLUEFIELD      FAIR      58  39  49 W9G20     30.15S
LEWISBURG      FAIR      62  29  29 W8G16     30.10F
$$

WVZ047-232100-
Northern Mountains of West Virginia

CITY           SKY/WX    TMP DP  RH WIND       PRES   REMARKS
ELKINS         FAIR      60  32  34 NW16G22   30.08S
$$

WVZ052-232100-
Eastern Panhandle of West Virginia

CITY           SKY/WX    TMP DP  RH WIND       PRES   REMARKS
MARTINSBURG    FAIR      67  31  26 W16G29    29.97R
PETERSBURG     FAIR      64  31  28 W26G33    30.01S
$$

Southeast Ohio/Northeast Kentucky

CITY           SKY/WX    TMP DP  RH WIND       PRES   REMARKS
ATHENS         FAIR      61  31  32 NW7G21    30.13S
ASHLAND        FAIR      65  37  35 W7        30.14F
$$



USA.gov is the U.S. government's official web portal to all federal, state and local government web resources and services.